カタログに戻る

STARLINK-3785

運用中通信VLEO
NORAD 52375·PAYLOAD·🇺🇸 United States

打ち上げ Apr 29, 2022 から Cape Canaveral Space Force Station

Loading…

次のパス (今後24時間)

TLE

最新Source: CelesTrak SupGP

元期: Sep 15, 2026, 01:33 UTC

1 52375C 22045AW  26258.06506944 -.00034335  00000+0 -10148-2 0  2585
2 52375  53.1599  45.2553 0001097  84.4801 131.7878 15.34396487    18

AllMySatでSTARLINK-3785をリアルタイム追跡

Download on the App Store